This is the latest recevied weather packets stored in our database for station/object K4CRS-13. If no packets are shown the sender has not sent any weather packets the latest 10 day(s).
| Time | Temp. | Humidity | Pressure | Rain* | Wind** | Luminosity | Snow |
|---|---|---|---|---|---|---|---|
| 1787402196 | 21.67° C | 99% | 1052 hPa | 0 mm | - | 76 W/m² | - |
| 1787401891 | 21.11° C | 99% | 1052 hPa | 0 mm | - | 69 W/m² | - |
| 1787401587 | 21.11° C | 99% | 1052 hPa | 0 mm | - | 62 W/m² | - |
| 1787401283 | 21.11° C | 99% | 1051.9 hPa | 0 mm | - | 57 W/m² | - |
| 1787400979 | 20° C | 99% | 1051.8 hPa | 0 mm | - | 51 W/m² | - |
| 1787400674 | 19.44° C | 99% | 1051.7 hPa | 0 mm | - | 45 W/m² | - |
| 1787400368 | 18.89° C | 99% | 1051.7 hPa | 0 mm | - | 40 W/m² | - |
| 1787400063 | 18.33° C | 99% | 1051.7 hPa | 0 mm | - | 35 W/m² | - |
| 1787399760 | 17.78° C | 99% | 1051.7 hPa | 0 mm | - | 27 W/m² | - |
| 1787399456 | 18.33° C | 99% | 1051.5 hPa | 0 mm | - | 22 W/m² | - |
| 1787399155 | 18.33° C | 99% | 1051.8 hPa | 0 mm | - | 19 W/m² | - |
| 1787398850 | 18.33° C | 99% | 1051.5 hPa | 0 mm | - | 16 W/m² | - |
| 1787398546 | 18.33° C | 99% | 1051.3 hPa | 0 mm | - | 12 W/m² | - |
| 1787398243 | 18.33° C | 99% | 1051.1 hPa | 0 mm | - | 9 W/m² | - |
| 1787397938 | 18.33° C | 99% | 1051.1 hPa | 0 mm | - | 6 W/m² | - |
| 1787397637 | 18.33° C | 99% | 1051 hPa | 0 mm | - | 4 W/m² | - |
| 1787397332 | 18.89° C | 99% | 1050.7 hPa | 0 mm | - | 2 W/m² | - |
| 1787397031 | 18.89° C | 99% | 1051 hPa | 0 mm | - | 1 W/m² | - |
| 1787396727 | 18.89° C | 99% | 1050.9 hPa | 0 mm | - | 0 W/m² | - |
| 1787396423 | 18.89° C | 99% | 1050.8 hPa | 0 mm | - | 0 W/m² | - |
| 1787396122 | 19.44° C | 99% | 1050.9 hPa | 0 mm | - | 0 W/m² | - |
| 1787395817 | 19.44° C | 99% | 1050.9 hPa | 0 mm | - | 0 W/m² | - |
| 1787395513 | 19.44° C | 99% | 1051 hPa | 0 mm | - | 0 W/m² | - |
| 1787395207 | 18.89° C | 99% | 1050.7 hPa | 0 mm | - | 0 W/m² | - |
| 1787394902 | 18.89° C | 99% | 1050.9 hPa | 0 mm | - | 0 W/m² | - |
* Rain latest hour (hover to see other rain measurements)
** Current wind speed in m/s (hover to see current wind gust speed)